Regional Weather Roundup
Issued by NWS Boston, MA

Current Version | Previous Version | Text Only | Print | Product List | Glossary Off
Versions: 1 2 3 4 5 6 7 8 9 10 11 12 13 14 15 16 17 18 19 20 21 22 23 24 25 26 27 28 29 30 31 32 33 34 35 36 37 38 39 40 41 42 43 44 45 46 47 48 49 50
000 ASUS41 KBOX 172210 RWRBOX REGIONAL WEATHER ROUNDUP NATIONAL WEATHER SERVICE BOSTON/NORTON MA 600 PM EDT FRI AUG 17 2018 NOTE: "FAIR" INDICATES FEW OR NO CLOUDS BELOW 12,000 FEET WITH NO SIGNIFICANT WEATHER AND/OR OBSTRUCTIONS TO VISIBILITY. MAZALL-172300- EASTERN MASSACHUSETTS CITY SKY/WX TMP DP RH WIND PRES REMARKS BOSTON LGT RAIN 75 69 81 NE8 29.96F BEVERLY PTSUNNY 74 70 87 E5 29.96F LAWRENCE FAIR 77 68 73 VRB6 29.98F BEDFORD PTSUNNY 78 67 68 SE7 29.96F THUNDER BLUE HILL N/A 80 74 81 SE9 29.97F NORWOOD FAIR 85 76 74 VRB3 29.94F HX 94 MARSHFIELD FAIR 86 73 66 SW9 29.96F HX 93 PLYMOUTH FAIR 85 71 63 S8 29.98S HX 90 TAUNTON FAIR 85 71 63 S9 29.97S HX 90 NEW BEDFORD FAIR 83 75 77 S13 29.98S HX 90 $$ MAZALL-172300- CAPE COD AND THE ISLANDS CITY SKY/WX TMP DP RH WIND PRES REMARKS FALMOUTH FAIR 81 72 74 SW13 30.01S HYANNIS FAIR 82 75 79 SW14 29.99R CHATHAM PTSUNNY 78 74 87 SW6 30.02S FOG PROVINCETOWN FAIR 81 73 76 S12 29.98F NANTUCKET FOG 73 73 100 S7 30.01F VSB 1/2 MARTHAS VNYRD FAIR 79 77 94 SW8 30.01R $$ MAZALL-172300- CENTRAL AND WESTERN MASSACHUSETTS CITY SKY/WX TMP DP RH WIND PRES REMARKS WORCESTER PTSUNNY 80 71 74 S8 30.00F FITCHBURG HVY RAIN 74 72 93 CALM 29.97F FOG ORANGE FAIR 83 74 74 SW6 29.95F SPRINGFIELD TSTM 82 73 73 S14 29.93S WESTFIELD PTSUNNY 79 74 84 S10 29.94R NORTH ADAMS TSTM 78 70 76 SE15G22 29.92F VSB 3/4 PITTSFIELD TSTM 77 71 82 VRB6G17 29.95S $$ RIZALL-172300- RHODE ISLAND CITY SKY/WX TMP DP RH WIND PRES REMARKS PROVIDENCE PTSUNNY 83 72 69 S17 29.98R NEWPORT FAIR 79 74 84 S9G17 29.99S BLOCK ISLAND FAIR 79 76 90 S12 30.00S SMITHFIELD FAIR 82 73 74 VRB6 29.98F WESTERLY FAIR 81 74 79 S12 29.99F $$ CTZALL-172300- CONNECTICUT CITY SKY/WX TMP DP RH WIND PRES REMARKS BRADLEY INTL TSTM 80 75 84 SW8 29.95R HARTFORD TSTM 83 74 74 S12 29.94S BRIDGEPORT FAIR 84 72 67 S16 29.94F DANBURY FAIR 80 75 84 S8 29.96F GROTON FAIR 77 72 84 SW6 29.98S NEW HAVEN FAIR 83 75 77 S10 29.96F HX 90 CHESTER FAIR 81 73 78 S8 29.99S MERIDEN PTSUNNY 84 71 65 S14 29.95F WILLIMANTIC FAIR 83 74 74 S9 29.97F OXFORD FAIR 80 74 81 S12 29.97F $$ MEZ002-015-021-024-NHZ003-005-008-011-012-014-VTZ005-008-172300- NORTHERN NEW ENGLAND CITY SKY/WX TMP DP RH WIND PRES REMARKS PORTLAND ME LGT RAIN 71 68 90 SE7 29.99F BANGOR ME PTSUNNY 71 60 68 S13 29.99F CONCORD NH FAIR 76 71 85 SE6 29.97F MANCHESTER NH PTSUNNY 76 72 87 SE7 29.95F NASHUA NH FAIR 77 74 90 SE5 29.96F PORTSMOUTH NH LGT RAIN 71 69 96 E9 29.96 FOG JAFFREY NH FAIR 80 73 79 SW3 29.99F KEENE NH FAIR N/A N/A N/A S6 29.94F BURLINGTON VT CLOUDY 77 71 82 S9 29.87F MT. WASHINGTON FOG 55 55 100 SW35G44 N/A VSB 0 $$ NYZ052-076-172300- EASTERN NEW YORK CITY SKY/WX TMP DP RH WIND PRES REMARKS ALBANY PTSUNNY 83 71 67 S15G23 29.88F NEW YORK CITY PTSUNNY 85 73 67 S16G25 29.93F HX 91 $$ ANZALL-172300- MARINE OBSERVATIONS STATION/POSITION TIME TEMP WIND PRES VSBY WAVE AIR SEA DIR/SP/G HT/PER (UTC) (F) (DEG/KT/KT) (MB) (MI) (FT/S) BOSTON BUOY 2150 74 72 110/ 10/ 12 1013.7F 1/ 3 BUZZARDS BAY 2100 75 200/ 13/ 14 1016.1F NANTUCKET SOUND 2150 76 78 210/ 10/ 12 1015.9R 1/ 5 MASS BAY-STELLWA 2104 72 69 120/ 8/ 10 1013.5F 1 7/8 1/ 3 ISLE OF SHOALS 2100 69 40/ 5/ 6 1015.6F S OF BLOCK IS 2143 78 N/A 2/ 8 $$ ......................KEY......................... SKY/WX - SKY CONDITION/PRESENT WEATHER TMP - TEMPERATURE IN FAHRENHEIT DWPT - DEWPOINT IN FAHRENHEIT RH - RELATIVE HUMIDITY IN PERCENT WIND - DIRECTION AND SPEED IN MPH PRES - MEAN SEA LEVEL PRESSURE IN INCHES OF HG WCI - WIND CHILL INDEX VSB - VISIBILITY IN MILES HX - HEAT INDEX TC - TEMPERATURE IN CELSIUS VRB - VARIABLE WIND DIRECTION N/A - NOT AVAILABLE

USA.gov is the U.S. government's official web portal to all federal, state and local government web resources and services.